CES7601 ZBAD-ZGSD

Flight info

Callsign CES7601
Flight time 2h 50m
Altitude 38100
Route K0854S1160 OMDEK7F OMDEK W37 GUSIV/K0857S1190 W37 PEXID/K0859S1160 W37 OMBEB/K0857S1190 R473 NNX/K0861S1160 R473 NOLON W90 POU W7 ZUH DCT
Aircraft B738/M-SDE2E3FGHIRWXY/LB1

Departure

Time 2026-04-24 09:14
Airport Beijing Daxing International Airport (ZBAD)

Arrival

Time 2026-04-24 12:04
Airport Zhuhai Jinwan Airport (ZGSD)
Time Latitude Longitude Altitude Speed Heading
2026-04-24 08:53 39.50689 116.40742 107 ft 0 kts 313°
2026-04-24 09:01 39.50681 116.40753 107 ft 3 kts 314°
2026-04-24 09:01 39.50666 116.40772 106 ft 3 kts 314°
2026-04-24 09:01 39.50653 116.40791 105 ft 3 kts 308°
2026-04-24 09:02 39.50642 116.40812 106 ft 3 kts 289°
2026-04-24 09:02 39.50637 116.40834 106 ft 3 kts 264°
2026-04-24 09:02 39.50644 116.40857 105 ft 3 kts 249°
2026-04-24 09:02 39.50647 116.40872 105 ft 0 kts 269°
2026-04-24 09:05 39.50643 116.40842 106 ft 8 kts 250°
2026-04-24 09:05 39.50587 116.40767 106 ft 16 kts 220°
2026-04-24 09:06 39.50503 116.40680 107 ft 12 kts 244°
2026-04-24 09:06 39.50481 116.40547 107 ft 18 kts 263°
2026-04-24 09:06 39.50530 116.40416 107 ft 20 kts 321°
2026-04-24 09:06 39.50658 116.40290 107 ft 20 kts 322°
2026-04-24 09:07 39.50784 116.40221 107 ft 20 kts 353°
2026-04-24 09:07 39.50919 116.40196 107 ft 19 kts 351°
2026-04-24 09:07 39.51124 116.40124 106 ft 12 kts 283°
2026-04-24 09:08 39.51123 116.40047 107 ft 0 kts 262°
2026-04-24 09:08 39.51122 116.40046 107 ft 1 kts 262°
2026-04-24 09:08 39.51118 116.40012 107 ft 7 kts 262°
2026-04-24 09:08 39.51154 116.39941 105 ft 13 kts 341°
2026-04-24 09:09 39.51266 116.39922 107 ft 19 kts 353°
2026-04-24 09:09 39.51400 116.39901 108 ft 20 kts 356°
2026-04-24 09:09 39.51535 116.39880 108 ft 7 kts 354°
2026-04-24 09:09 39.51581 116.39874 107 ft 7 kts 352°
2026-04-24 09:10 39.51630 116.39865 108 ft 9 kts 352°
2026-04-24 09:10 39.51708 116.39852 108 ft 14 kts 354°
2026-04-24 09:10 39.51790 116.39833 106 ft 7 kts 322°
2026-04-24 09:10 39.51795 116.39754 108 ft 11 kts 263°
2026-04-24 09:11 39.51784 116.39632 108 ft 16 kts 263°
2026-04-24 09:11 39.51769 116.39471 106 ft 20 kts 263°
2026-04-24 09:11 39.51752 116.39277 107 ft 23 kts 263°
2026-04-24 09:11 39.51734 116.39105 106 ft 9 kts 252°
2026-04-24 09:12 39.51723 116.39021 105 ft 10 kts 261°
2026-04-24 09:12 39.51713 116.38923 104 ft 13 kts 262°
2026-04-24 09:12 39.51702 116.38783 100 ft 13 kts 264°
2026-04-24 09:12 39.51678 116.38739 101 ft 1 kts 196°
2026-04-24 09:13 39.51662 116.38741 101 ft 0 kts 173°
2026-04-24 09:13 39.51652 116.38743 101 ft 9 kts 172°
2026-04-24 09:13 39.51329 116.38794 101 ft 85 kts 174°
2026-04-24 09:14 39.50524 116.38916 104 ft 148 kts 174°
2026-04-24 09:14 39.49405 116.39104 554 ft 167 kts 172°
2026-04-24 09:14 39.48266 116.39382 1424 ft 165 kts 170°
2026-04-24 09:14 39.47182 116.39710 2401 ft 157 kts 168°
2026-04-24 09:15 39.46120 116.40094 3164 ft 160 kts 166°
2026-04-24 09:15 39.45029 116.40185 3887 ft 156 kts 188°
2026-04-24 09:15 39.43940 116.40182 4599 ft 158 kts 180°
2026-04-24 09:15 39.42754 116.40292 4923 ft 189 kts 179°
2026-04-24 09:16 39.41342 116.40428 5166 ft 216 kts 178°
2026-04-24 09:16 39.39766 116.40612 5371 ft 239 kts 177°
2026-04-24 09:16 39.38002 116.40856 5566 ft 262 kts 175°
2026-04-24 09:16 39.36137 116.41135 6009 ft 275 kts 175°
2026-04-24 09:17 39.34237 116.41430 6739 ft 280 kts 175°
2026-04-24 09:17 39.32302 116.41733 7651 ft 280 kts 175°
2026-04-24 09:17 39.30354 116.42038 8477 ft 284 kts 175°
2026-04-24 09:17 39.28384 116.42344 9286 ft 288 kts 175°
2026-04-24 09:18 39.26378 116.42658 10062 ft 292 kts 175°
2026-04-24 09:18 39.24352 116.42974 10810 ft 297 kts 175°
2026-04-24 09:18 39.22229 116.43304 11082 ft 319 kts 175°
2026-04-24 09:18 39.19944 116.43658 11276 ft 342 kts 175°
2026-04-24 09:19 39.17500 116.44039 11454 ft 364 kts 175°
2026-04-24 09:19 39.14916 116.44442 11687 ft 382 kts 175°
2026-04-24 09:19 39.12247 116.44859 12207 ft 390 kts 175°
2026-04-24 09:19 39.09548 116.45267 12904 ft 391 kts 177°
2026-04-24 09:20 39.06880 116.44978 13586 ft 390 kts 197°
2026-04-24 09:20 39.04404 116.43562 14188 ft 391 kts 214°
2026-04-24 09:20 39.02156 116.41582 14790 ft 394 kts 217°
2026-04-24 09:20 38.99907 116.39528 15324 ft 399 kts 217°
2026-04-24 09:21 38.97628 116.37449 15903 ft 402 kts 217°
2026-04-24 09:21 38.95327 116.35369 16465 ft 406 kts 217°
2026-04-24 09:21 38.92989 116.33277 16977 ft 411 kts 216°
2026-04-24 09:21 38.90619 116.31174 17525 ft 415 kts 216°
2026-04-24 09:22 38.88230 116.29059 18076 ft 419 kts 216°
2026-04-24 09:22 38.85821 116.26929 18547 ft 423 kts 216°
2026-04-24 09:22 38.83386 116.24780 19041 ft 425 kts 216°
2026-04-24 09:22 38.80944 116.22633 19520 ft 428 kts 216°
2026-04-24 09:23 38.78478 116.20469 19983 ft 431 kts 216°
2026-04-24 09:23 38.75995 116.18291 20481 ft 433 kts 216°
2026-04-24 09:23 38.73530 116.16131 20916 ft 436 kts 216°
2026-04-24 09:23 38.71014 116.13926 21352 ft 439 kts 216°
2026-04-24 09:24 38.68489 116.11715 21780 ft 442 kts 216°
2026-04-24 09:24 38.65934 116.09494 22198 ft 445 kts 214°
2026-04-24 09:24 38.63158 116.07695 22594 ft 450 kts 203°
2026-04-24 09:24 38.60215 116.06297 23022 ft 453 kts 201°
2026-04-24 09:25 38.57231 116.04963 23416 ft 456 kts 201°
2026-04-24 09:25 38.54220 116.03615 23752 ft 458 kts 201°
2026-04-24 09:25 38.51210 116.02237 24101 ft 460 kts 202°
2026-04-24 09:25 38.48236 116.00845 24443 ft 461 kts 202°
2026-04-24 09:26 38.45221 115.99412 24783 ft 463 kts 202°
2026-04-24 09:26 38.42198 115.97968 25102 ft 464 kts 202°
2026-04-24 09:26 38.39162 115.96517 25412 ft 466 kts 202°
2026-04-24 09:26 38.36116 115.95063 25712 ft 468 kts 202°
2026-04-24 09:27 38.33055 115.93606 26004 ft 470 kts 202°
2026-04-24 09:27 38.29990 115.92155 26315 ft 471 kts 202°
2026-04-24 09:27 38.26839 115.90989 26664 ft 473 kts 193°
2026-04-24 09:27 38.23575 115.90420 27112 ft 473 kts 188°
2026-04-24 09:28 38.20306 115.89993 27572 ft 471 kts 188°
2026-04-24 09:28 38.17093 115.89554 27984 ft 470 kts 189°
2026-04-24 09:28 38.13845 115.89066 28375 ft 469 kts 189°
2026-04-24 09:28 38.10610 115.88556 28789 ft 468 kts 189°
2026-04-24 09:29 38.07388 115.88042 29228 ft 466 kts 189°
2026-04-24 09:29 38.04180 115.87533 29649 ft 465 kts 189°
2026-04-24 09:29 38.00954 115.87023 30043 ft 464 kts 189°
2026-04-24 09:29 37.97740 115.86517 30386 ft 463 kts 189°
2026-04-24 09:30 37.94590 115.86021 30734 ft 462 kts 189°
2026-04-24 09:30 37.91409 115.85522 31083 ft 460 kts 190°
2026-04-24 09:30 37.88233 115.85022 31428 ft 459 kts 190°
2026-04-24 09:30 37.85059 115.84516 31761 ft 458 kts 190°
2026-04-24 09:31 37.81894 115.84009 32096 ft 457 kts 190°
2026-04-24 09:31 37.78745 115.83506 32437 ft 455 kts 190°
2026-04-24 09:31 37.75596 115.83004 32769 ft 454 kts 190°
2026-04-24 09:31 37.72485 115.82365 33083 ft 451 kts 197°
2026-04-24 09:32 37.69516 115.81186 33390 ft 445 kts 206°
2026-04-24 09:32 37.66711 115.79547 33737 ft 442 kts 208°
2026-04-24 09:32 37.63944 115.77869 34038 ft 441 kts 209°
2026-04-24 09:32 37.61211 115.76204 34247 ft 441 kts 209°
2026-04-24 09:33 37.58442 115.74527 34431 ft 442 kts 208°
2026-04-24 09:33 37.55663 115.72859 34654 ft 442 kts 208°
2026-04-24 09:33 37.52883 115.71203 34880 ft 442 kts 208°
2026-04-24 09:33 37.50094 115.69550 35086 ft 442 kts 208°
2026-04-24 09:34 37.47315 115.67910 35295 ft 442 kts 208°
2026-04-24 09:34 37.44533 115.66270 35499 ft 441 kts 208°
2026-04-24 09:34 37.41746 115.64630 35705 ft 441 kts 208°
2026-04-24 09:34 37.38964 115.62993 35901 ft 441 kts 208°
2026-04-24 09:35 37.36182 115.61358 36093 ft 441 kts 208°
2026-04-24 09:35 37.34337 115.60274 36223 ft 441 kts 208°
2026-04-24 09:35 37.31556 115.58641 36426 ft 441 kts 208°
2026-04-24 09:35 37.27864 115.56475 36647 ft 442 kts 208°
2026-04-24 09:36 37.25080 115.54843 36831 ft 441 kts 208°
2026-04-24 09:36 37.23197 115.53740 36974 ft 441 kts 208°
2026-04-24 09:36 37.19512 115.51583 37209 ft 441 kts 208°
2026-04-24 09:36 37.16728 115.49955 37367 ft 441 kts 208°
2026-04-24 09:37 37.13946 115.48330 37547 ft 441 kts 208°
2026-04-24 09:37 37.12104 115.47255 37663 ft 441 kts 208°
2026-04-24 09:37 37.08385 115.45085 37875 ft 441 kts 208°
2026-04-24 09:37 37.06546 115.44013 37970 ft 441 kts 208°
2026-04-24 09:38 37.00959 115.40759 38016 ft 444 kts 208°
2026-04-24 09:38 36.95359 115.37504 38017 ft 442 kts 208°
2026-04-24 09:39 36.89793 115.34274 38019 ft 440 kts 208°
2026-04-24 09:39 36.84280 115.31079 38019 ft 438 kts 208°
2026-04-24 09:40 36.78744 115.27875 38026 ft 437 kts 208°
2026-04-24 09:40 36.73249 115.24699 38024 ft 437 kts 208°
2026-04-24 09:41 36.67732 115.21502 38024 ft 437 kts 209°
2026-04-24 09:41 36.62197 115.18260 38035 ft 441 kts 209°
2026-04-24 09:42 36.56609 115.14990 38030 ft 446 kts 209°
2026-04-24 09:42 36.50965 115.11700 38030 ft 450 kts 208°
2026-04-24 09:43 36.45273 115.08387 38026 ft 452 kts 208°
2026-04-24 09:43 36.39595 115.05095 38022 ft 453 kts 208°
2026-04-24 09:44 36.33606 115.02560 38020 ft 460 kts 194°
2026-04-24 09:44 36.27192 115.01797 38021 ft 462 kts 188°
2026-04-24 09:45 36.20824 115.01228 38028 ft 461 kts 188°
2026-04-24 09:45 36.14430 115.00621 38024 ft 460 kts 188°
2026-04-24 09:46 36.08062 114.99981 38029 ft 458 kts 189°
2026-04-24 09:46 36.01708 114.99330 38037 ft 457 kts 189°
2026-04-24 09:47 35.95365 114.98680 38038 ft 457 kts 189°
2026-04-24 09:47 35.89028 114.98033 38038 ft 456 kts 189°
2026-04-24 09:48 35.82706 114.97389 38038 ft 456 kts 189°
2026-04-24 09:48 35.76375 114.96746 38048 ft 455 kts 189°
2026-04-24 09:49 35.70098 114.96109 38047 ft 455 kts 189°
2026-04-24 09:49 35.63776 114.95469 38053 ft 455 kts 189°
2026-04-24 09:50 35.57456 114.94830 38054 ft 455 kts 189°
2026-04-24 09:50 35.51133 114.94192 38061 ft 455 kts 189°
2026-04-24 09:51 35.44811 114.93554 38058 ft 456 kts 189°
2026-04-24 09:51 35.38523 114.92921 38064 ft 456 kts 189°
2026-04-24 09:52 35.32204 114.92287 38066 ft 456 kts 189°
2026-04-24 09:52 35.25875 114.91652 38069 ft 456 kts 189°
2026-04-24 09:53 35.19553 114.91019 38070 ft 455 kts 189°
2026-04-24 09:53 35.13278 114.90391 38073 ft 455 kts 189°
2026-04-24 09:54 35.06969 114.89761 38075 ft 455 kts 189°
2026-04-24 09:54 35.00664 114.89132 38072 ft 454 kts 189°
2026-04-24 09:55 34.94355 114.88504 38079 ft 454 kts 189°
2026-04-24 09:55 34.88052 114.87878 38082 ft 454 kts 190°
2026-04-24 09:56 34.81790 114.87256 38081 ft 453 kts 190°
2026-04-24 09:56 34.75502 114.86633 38082 ft 453 kts 190°
2026-04-24 09:57 34.69213 114.86011 38087 ft 453 kts 190°
2026-04-24 09:57 34.62931 114.85391 38090 ft 453 kts 190°
2026-04-24 09:58 34.56652 114.84771 38086 ft 452 kts 190°
2026-04-24 09:58 34.50376 114.84153 38090 ft 452 kts 190°
2026-04-24 09:59 34.44102 114.83536 38088 ft 452 kts 190°
2026-04-24 09:59 34.37878 114.82925 38095 ft 452 kts 190°
2026-04-24 10:00 34.31609 114.82310 38085 ft 451 kts 190°
2026-04-24 10:00 34.25342 114.81696 38095 ft 451 kts 190°
2026-04-24 10:01 34.19066 114.81083 38092 ft 451 kts 190°
2026-04-24 10:01 34.12846 114.80484 38086 ft 451 kts 190°
2026-04-24 10:02 34.06584 114.79896 38096 ft 451 kts 190°
2026-04-24 10:02 34.00334 114.79309 38092 ft 450 kts 190°
2026-04-24 10:03 33.94091 114.78721 38091 ft 450 kts 190°
2026-04-24 10:03 33.87840 114.78133 38096 ft 449 kts 191°
2026-04-24 10:04 33.81603 114.77538 38093 ft 449 kts 191°
2026-04-24 10:04 33.75377 114.76904 38100 ft 448 kts 191°
2026-04-24 10:05 33.69203 114.76283 38096 ft 448 kts 191°
2026-04-24 10:05 33.62966 114.75731 38099 ft 448 kts 191°
2026-04-24 10:06 33.53679 114.74817 38096 ft 447 kts 192°
2026-04-24 10:07 33.47484 114.74123 38097 ft 447 kts 192°
2026-04-24 10:07 33.41273 114.73524 38100 ft 447 kts 191°
2026-04-24 10:08 33.35061 114.72957 38104 ft 447 kts 191°
2026-04-24 10:08 33.28895 114.72381 38103 ft 447 kts 191°
2026-04-24 10:09 33.22681 114.71796 38102 ft 447 kts 191°
2026-04-24 10:09 33.16482 114.71200 38102 ft 446 kts 192°
2026-04-24 10:10 33.10300 114.70580 38099 ft 445 kts 192°
2026-04-24 10:10 33.04159 114.69965 38102 ft 445 kts 192°
2026-04-24 10:11 32.97977 114.69350 38102 ft 445 kts 192°
2026-04-24 10:11 32.91805 114.68738 38104 ft 444 kts 192°
2026-04-24 10:12 32.85635 114.68133 38097 ft 444 kts 192°
2026-04-24 10:12 32.79510 114.67558 38107 ft 444 kts 192°
2026-04-24 10:13 32.73333 114.66981 38112 ft 444 kts 192°
2026-04-24 10:13 32.67160 114.66402 38105 ft 444 kts 192°
2026-04-24 10:14 32.61040 114.65828 38108 ft 444 kts 192°
2026-04-24 10:14 32.54882 114.65251 38104 ft 444 kts 192°
2026-04-24 10:15 32.48714 114.64674 38107 ft 444 kts 192°
2026-04-24 10:15 32.42579 114.64100 38105 ft 444 kts 192°
2026-04-24 10:16 32.36421 114.63523 38106 ft 444 kts 192°
2026-04-24 10:16 32.30270 114.62926 38101 ft 443 kts 193°
2026-04-24 10:17 32.24110 114.62324 38115 ft 443 kts 193°
2026-04-24 10:17 32.17953 114.61724 38106 ft 444 kts 193°
2026-04-24 10:18 32.11799 114.61128 38117 ft 444 kts 193°
2026-04-24 10:18 32.05682 114.60536 38116 ft 444 kts 193°
2026-04-24 10:19 31.99518 114.59941 38121 ft 444 kts 193°
2026-04-24 10:19 31.93363 114.59347 38114 ft 444 kts 193°
2026-04-24 10:20 31.87202 114.58753 38119 ft 443 kts 193°
2026-04-24 10:20 31.81090 114.58165 38124 ft 443 kts 193°
2026-04-24 10:21 31.74959 114.57576 38128 ft 442 kts 193°
2026-04-24 10:21 31.68813 114.56985 38122 ft 442 kts 193°
2026-04-24 10:22 31.62685 114.56397 38137 ft 441 kts 193°
2026-04-24 10:22 31.56599 114.55808 38120 ft 440 kts 193°
2026-04-24 10:23 31.50484 114.55216 38127 ft 441 kts 193°
2026-04-24 10:23 31.44370 114.54625 38123 ft 440 kts 193°
2026-04-24 10:24 31.39292 114.54135 38125 ft 440 kts 193°
2026-04-24 10:24 31.33192 114.53547 38134 ft 439 kts 193°
2026-04-24 10:25 31.26134 114.52783 38129 ft 432 kts 199°
2026-04-24 10:25 31.20530 114.50731 38130 ft 415 kts 212°
2026-04-24 10:26 31.16197 114.48354 38128 ft 415 kts 213°
2026-04-24 10:26 31.10964 114.45496 38131 ft 415 kts 212°
2026-04-24 10:27 31.05711 114.42668 38153 ft 415 kts 212°
2026-04-24 10:27 31.00482 114.39869 38137 ft 416 kts 212°
2026-04-24 10:28 30.95223 114.37057 38144 ft 415 kts 212°
2026-04-24 10:28 30.89997 114.34203 38137 ft 413 kts 214°
2026-04-24 10:29 30.84875 114.31195 38141 ft 412 kts 214°
2026-04-24 10:29 30.79746 114.28233 38142 ft 412 kts 213°
2026-04-24 10:30 30.74575 114.25434 38145 ft 412 kts 212°
2026-04-24 10:30 30.69358 114.22640 38148 ft 411 kts 212°
2026-04-24 10:31 30.64162 114.19836 38142 ft 411 kts 213°
2026-04-24 10:31 30.59013 114.17055 38141 ft 410 kts 213°
2026-04-24 10:32 30.53875 114.14202 38140 ft 409 kts 213°
2026-04-24 10:32 30.48720 114.11403 38136 ft 409 kts 213°
2026-04-24 10:33 30.43556 114.08636 38140 ft 408 kts 213°
2026-04-24 10:33 30.38438 114.05888 38138 ft 408 kts 213°
2026-04-24 10:34 30.33287 114.03120 38137 ft 407 kts 213°
2026-04-24 10:34 30.28153 114.00361 38136 ft 406 kts 213°
2026-04-24 10:35 30.23026 113.97614 38133 ft 405 kts 213°
2026-04-24 10:35 30.17907 113.94883 38136 ft 404 kts 213°
2026-04-24 10:36 30.12831 113.92178 38132 ft 404 kts 213°
2026-04-24 10:36 30.07728 113.89460 38143 ft 403 kts 213°
2026-04-24 10:37 30.02636 113.86751 38142 ft 402 kts 213°
2026-04-24 10:37 29.97549 113.84046 38144 ft 402 kts 213°
2026-04-24 10:38 29.92464 113.81346 38140 ft 401 kts 213°
2026-04-24 10:38 29.87266 113.78974 38142 ft 412 kts 205°
2026-04-24 10:39 29.81477 113.78012 38148 ft 427 kts 194°
2026-04-24 10:39 29.75534 113.77645 38139 ft 428 kts 194°
2026-04-24 10:40 29.69586 113.77274 38140 ft 427 kts 194°
2026-04-24 10:40 29.63700 113.76879 38148 ft 426 kts 194°
2026-04-24 10:41 29.57776 113.76469 38140 ft 425 kts 195°
2026-04-24 10:41 29.51868 113.76058 38145 ft 425 kts 195°
2026-04-24 10:42 29.45957 113.75650 38138 ft 423 kts 195°
2026-04-24 10:42 29.40122 113.75247 38138 ft 423 kts 195°
2026-04-24 10:43 29.34246 113.74840 38144 ft 423 kts 195°
2026-04-24 10:43 29.28375 113.74436 38139 ft 422 kts 195°
2026-04-24 10:44 29.22501 113.74084 38146 ft 426 kts 192°
2026-04-24 10:44 29.16551 113.74211 38150 ft 429 kts 190°
2026-04-24 10:45 29.10598 113.74436 38147 ft 428 kts 191°
2026-04-24 10:45 29.04676 113.74631 38140 ft 427 kts 191°
2026-04-24 10:46 28.98736 113.74803 38146 ft 426 kts 191°
2026-04-24 10:46 28.92809 113.74968 38140 ft 425 kts 192°
2026-04-24 10:47 28.86885 113.75133 38140 ft 426 kts 191°
2026-04-24 10:47 28.80997 113.75298 38143 ft 426 kts 191°
2026-04-24 10:48 28.75069 113.75466 38140 ft 424 kts 192°
2026-04-24 10:48 28.66511 113.75037 38148 ft 413 kts 197°
2026-04-24 10:49 28.63638 113.74801 38140 ft 413 kts 197°
2026-04-24 10:49 28.57886 113.74347 38144 ft 415 kts 197°
2026-04-24 10:50 28.52109 113.73919 38153 ft 416 kts 197°
2026-04-24 10:50 28.46353 113.73502 38157 ft 417 kts 197°
2026-04-24 10:51 28.40547 113.73083 38126 ft 418 kts 197°
2026-04-24 10:51 28.34750 113.72664 38148 ft 417 kts 197°
2026-04-24 10:52 28.28952 113.72242 38144 ft 417 kts 197°
2026-04-24 10:52 28.23162 113.71819 38137 ft 417 kts 197°
2026-04-24 10:53 28.17420 113.71374 38144 ft 416 kts 197°
2026-04-24 10:53 28.11637 113.70916 38147 ft 416 kts 197°
2026-04-24 10:54 28.05854 113.70444 38133 ft 416 kts 197°
2026-04-24 10:54 28.00082 113.69951 38122 ft 415 kts 198°
2026-04-24 10:55 27.94336 113.69424 38136 ft 414 kts 198°
2026-04-24 10:55 27.88668 113.68908 38131 ft 406 kts 198°
2026-04-24 10:56 27.83095 113.68409 38143 ft 399 kts 198°
2026-04-24 10:56 27.77566 113.67902 38148 ft 397 kts 198°
2026-04-24 10:57 27.72050 113.67401 38148 ft 396 kts 198°
2026-04-24 10:57 27.66550 113.66903 38136 ft 396 kts 198°
2026-04-24 10:58 27.61046 113.66547 38138 ft 402 kts 195°
2026-04-24 10:58 27.55430 113.66454 38134 ft 404 kts 194°
2026-04-24 10:59 27.49791 113.66373 38105 ft 404 kts 194°
2026-04-24 10:59 27.44158 113.66264 38141 ft 406 kts 195°
2026-04-24 11:00 27.38521 113.66145 38136 ft 404 kts 195°
2026-04-24 11:00 27.32943 113.66025 38146 ft 404 kts 195°
2026-04-24 11:01 27.27278 113.65899 38146 ft 409 kts 194°
2026-04-24 11:01 27.21561 113.65776 38131 ft 412 kts 194°
2026-04-24 11:02 27.15707 113.66250 38130 ft 439 kts 180°
2026-04-24 11:02 27.09742 113.68017 38132 ft 445 kts 178°
2026-04-24 11:03 27.03761 113.69858 38153 ft 444 kts 179°
2026-04-24 11:03 26.97831 113.71639 38132 ft 442 kts 179°
2026-04-24 11:04 26.91890 113.73394 38137 ft 440 kts 179°
2026-04-24 11:04 26.85969 113.75137 38119 ft 439 kts 179°
2026-04-24 11:05 26.80110 113.76861 38136 ft 437 kts 179°
2026-04-24 11:05 26.74186 113.78603 38146 ft 437 kts 179°
2026-04-24 11:06 26.68349 113.80410 38149 ft 439 kts 178°
2026-04-24 11:06 26.62468 113.82280 38147 ft 439 kts 178°
2026-04-24 11:07 26.53648 113.85056 38142 ft 439 kts 178°
2026-04-24 11:07 26.47760 113.86881 38141 ft 438 kts 178°
2026-04-24 11:08 26.41863 113.88583 38144 ft 438 kts 179°
2026-04-24 11:08 26.35979 113.90260 38158 ft 439 kts 179°
2026-04-24 11:09 26.30039 113.91966 38167 ft 441 kts 179°
2026-04-24 11:09 26.24084 113.93683 38167 ft 442 kts 178°
2026-04-24 11:10 26.18149 113.95395 38153 ft 443 kts 179°
2026-04-24 11:10 26.12179 113.97114 38158 ft 443 kts 178°
2026-04-24 11:11 26.06207 113.98833 38157 ft 443 kts 178°
2026-04-24 11:11 26.00246 114.00550 38159 ft 442 kts 178°
2026-04-24 11:12 25.94296 114.02311 38149 ft 442 kts 178°
2026-04-24 11:12 25.88356 114.04082 38171 ft 440 kts 178°
2026-04-24 11:13 25.82441 114.05839 38154 ft 439 kts 178°
2026-04-24 11:13 25.76567 114.07578 38168 ft 440 kts 178°
2026-04-24 11:14 25.70629 114.09330 38153 ft 441 kts 178°
2026-04-24 11:14 25.64690 114.11084 38174 ft 442 kts 177°
2026-04-24 11:15 25.58772 114.12829 38153 ft 443 kts 177°
2026-04-24 11:15 25.52795 114.14592 38170 ft 444 kts 177°
2026-04-24 11:16 25.46810 114.16354 38160 ft 444 kts 177°
2026-04-24 11:16 25.40887 114.18097 38156 ft 442 kts 177°
2026-04-24 11:17 25.34963 114.19839 38151 ft 441 kts 177°
2026-04-24 11:17 25.29033 114.21580 38162 ft 438 kts 178°
2026-04-24 11:18 25.23133 114.23310 38163 ft 436 kts 177°
2026-04-24 11:18 25.18264 114.24737 38164 ft 434 kts 177°
2026-04-24 11:19 25.11443 114.26582 38153 ft 421 kts 185°
2026-04-24 11:19 25.06709 114.26697 38168 ft 400 kts 197°
2026-04-24 11:20 25.01327 114.25596 38157 ft 392 kts 202°
2026-04-24 11:20 24.95956 114.24385 38169 ft 397 kts 202°
2026-04-24 11:21 24.90532 114.23182 38163 ft 403 kts 201°
2026-04-24 11:21 24.85011 114.21981 38167 ft 406 kts 201°
2026-04-24 11:22 24.79463 114.20788 38153 ft 405 kts 201°
2026-04-24 11:22 24.73936 114.19592 38160 ft 405 kts 201°
2026-04-24 11:23 24.68415 114.18399 38145 ft 404 kts 201°
2026-04-24 11:23 24.62906 114.17210 38153 ft 403 kts 201°
2026-04-24 11:24 24.57406 114.16024 38150 ft 403 kts 201°
2026-04-24 11:24 24.51942 114.14846 38162 ft 402 kts 201°
2026-04-24 11:25 24.46453 114.13664 38157 ft 402 kts 201°
2026-04-24 11:25 24.40973 114.12485 38163 ft 401 kts 201°
2026-04-24 11:26 24.35579 114.11088 38155 ft 391 kts 208°
2026-04-24 11:26 24.30814 114.08470 38161 ft 379 kts 219°
2026-04-24 11:27 24.26352 114.05418 38159 ft 380 kts 219°
2026-04-24 11:27 24.21889 114.02301 38160 ft 381 kts 219°
2026-04-24 11:28 24.17396 113.99172 38143 ft 383 kts 219°
2026-04-24 11:28 24.12886 113.96046 38141 ft 384 kts 219°
2026-04-24 11:29 24.08673 113.92581 38155 ft 379 kts 227°
2026-04-24 11:29 24.04755 113.88691 38155 ft 381 kts 227°
2026-04-24 11:30 24.00817 113.84794 38151 ft 382 kts 227°
2026-04-24 11:30 23.96846 113.80883 38156 ft 384 kts 227°
2026-04-24 11:31 23.92889 113.76996 38153 ft 384 kts 227°
2026-04-24 11:31 23.88900 113.73084 38154 ft 385 kts 227°
2026-04-24 11:32 23.84914 113.69178 38139 ft 385 kts 227°
2026-04-24 11:32 23.80924 113.65272 38146 ft 384 kts 227°
2026-04-24 11:33 23.76946 113.61379 38136 ft 383 kts 226°
2026-04-24 11:33 23.75024 113.59499 37823 ft 388 kts 226°
2026-04-24 11:33 23.73013 113.57532 37351 ft 387 kts 226°
2026-04-24 11:34 23.71017 113.55584 36930 ft 382 kts 226°
2026-04-24 11:34 23.69040 113.53655 36461 ft 379 kts 227°
2026-04-24 11:34 23.67086 113.51749 36050 ft 375 kts 227°
2026-04-24 11:34 23.65149 113.49858 35625 ft 372 kts 227°
2026-04-24 11:35 23.63226 113.47981 35192 ft 370 kts 227°
2026-04-24 11:35 23.61315 113.46117 34764 ft 367 kts 227°
2026-04-24 11:35 23.59411 113.44260 34322 ft 366 kts 227°
2026-04-24 11:35 23.57519 113.42416 33872 ft 364 kts 227°
2026-04-24 11:36 23.55630 113.40594 33424 ft 362 kts 224°
2026-04-24 11:36 23.53564 113.39010 32995 ft 364 kts 218°
2026-04-24 11:36 23.51323 113.37683 32406 ft 371 kts 211°
2026-04-24 11:36 23.48891 113.36676 31977 ft 373 kts 207°
2026-04-24 11:37 23.46441 113.35748 31557 ft 372 kts 207°
2026-04-24 11:37 23.44025 113.34849 31154 ft 370 kts 207°
2026-04-24 11:37 23.41596 113.33943 30739 ft 368 kts 207°
2026-04-24 11:37 23.39177 113.33035 30358 ft 366 kts 207°
2026-04-24 11:38 23.36776 113.32128 29916 ft 364 kts 207°
2026-04-24 11:38 23.34389 113.31223 29469 ft 361 kts 207°
2026-04-24 11:38 23.32025 113.30326 29037 ft 358 kts 207°
2026-04-24 11:38 23.29677 113.29433 28612 ft 355 kts 207°
2026-04-24 11:39 23.27351 113.28549 28204 ft 353 kts 207°
2026-04-24 11:39 23.25067 113.27681 27801 ft 350 kts 207°
2026-04-24 11:39 23.22774 113.26809 27403 ft 348 kts 206°
2026-04-24 11:39 23.20494 113.25942 27036 ft 346 kts 208°
2026-04-24 11:40 23.18232 113.25083 26635 ft 343 kts 207°
2026-04-24 11:40 23.15979 113.24226 26228 ft 342 kts 207°
2026-04-24 11:40 23.13737 113.23375 25830 ft 340 kts 207°
2026-04-24 11:40 23.11504 113.22528 25448 ft 339 kts 207°
2026-04-24 11:41 23.09539 113.21783 25086 ft 338 kts 207°
2026-04-24 11:41 23.07296 113.20993 24674 ft 343 kts 199°
2026-04-24 11:41 23.04853 113.20903 24274 ft 360 kts 180°
2026-04-24 11:41 23.02400 113.21718 23824 ft 380 kts 161°
2026-04-24 11:42 23.00224 113.23486 23167 ft 404 kts 138°
2026-04-24 11:42 22.98643 113.26064 22701 ft 413 kts 123°
2026-04-24 11:42 22.97329 113.28835 22220 ft 413 kts 121°
2026-04-24 11:42 22.96067 113.31635 21781 ft 412 kts 120°
2026-04-24 11:43 22.94804 113.34412 21369 ft 410 kts 121°
2026-04-24 11:43 22.93535 113.37131 20968 ft 407 kts 121°
2026-04-24 11:43 22.92239 113.39853 20556 ft 404 kts 121°
2026-04-24 11:43 22.90943 113.42553 20171 ft 402 kts 121°
2026-04-24 11:44 22.89473 113.45095 19759 ft 393 kts 136°
2026-04-24 11:44 22.87396 113.46923 19394 ft 378 kts 157°
2026-04-24 11:44 22.84985 113.47985 18782 ft 372 kts 172°
2026-04-24 11:44 22.82474 113.48295 18325 ft 363 kts 185°
2026-04-24 11:45 22.79954 113.48265 17856 ft 360 kts 187°
2026-04-24 11:45 22.77453 113.48175 17440 ft 357 kts 187°
2026-04-24 11:45 22.74988 113.48076 17043 ft 353 kts 187°
2026-04-24 11:45 22.72543 113.47985 16658 ft 350 kts 187°
2026-04-24 11:46 22.70121 113.47904 16285 ft 346 kts 187°
2026-04-24 11:46 22.67726 113.47831 15905 ft 343 kts 187°
2026-04-24 11:46 22.65375 113.47765 15537 ft 340 kts 186°
2026-04-24 11:46 22.63014 113.47701 15170 ft 337 kts 186°
2026-04-24 11:47 22.60674 113.47640 14802 ft 335 kts 186°
2026-04-24 11:47 22.58355 113.47581 14439 ft 333 kts 186°
2026-04-24 11:47 22.56039 113.47522 14072 ft 330 kts 186°
2026-04-24 11:47 22.53738 113.47463 13677 ft 329 kts 186°
2026-04-24 11:48 22.51457 113.47405 13285 ft 327 kts 185°
2026-04-24 11:48 22.49213 113.47348 12903 ft 324 kts 185°
2026-04-24 11:48 22.46963 113.47292 12532 ft 322 kts 185°
2026-04-24 11:48 22.44734 113.47235 12177 ft 319 kts 185°
2026-04-24 11:49 22.42513 113.47180 11811 ft 317 kts 185°
2026-04-24 11:49 22.40558 113.47131 11500 ft 315 kts 185°
2026-04-24 11:49 22.38401 113.47076 11149 ft 314 kts 184°
2026-04-24 11:49 22.36219 113.47021 10800 ft 312 kts 184°
2026-04-24 11:50 22.34077 113.46967 10452 ft 310 kts 184°
2026-04-24 11:50 22.31905 113.46912 10231 ft 304 kts 184°
2026-04-24 11:50 22.29814 113.46861 10065 ft 296 kts 184°
2026-04-24 11:50 22.27807 113.46811 9971 ft 286 kts 184°
2026-04-24 11:51 22.25803 113.46760 9511 ft 289 kts 184°
2026-04-24 11:51 22.23794 113.46700 9151 ft 288 kts 187°
2026-04-24 11:51 22.21905 113.46112 8815 ft 281 kts 211°
2026-04-24 11:51 22.20390 113.44813 8463 ft 277 kts 226°
2026-04-24 11:52 22.19034 113.43344 8138 ft 275 kts 227°
2026-04-24 11:52 22.17717 113.41890 7845 ft 272 kts 227°
2026-04-24 11:52 22.16398 113.40435 7548 ft 270 kts 227°
2026-04-24 11:52 22.15074 113.38979 7244 ft 268 kts 226°
2026-04-24 11:53 22.13779 113.37562 6960 ft 266 kts 226°
2026-04-24 11:53 22.12481 113.36144 6661 ft 265 kts 226°
2026-04-24 11:53 22.11187 113.34733 6361 ft 263 kts 226°
2026-04-24 11:53 22.09899 113.33332 6052 ft 262 kts 226°
2026-04-24 11:54 22.08625 113.31947 5857 ft 256 kts 226°
2026-04-24 11:54 22.07387 113.30601 5726 ft 249 kts 225°
2026-04-24 11:54 22.06203 113.29315 5619 ft 240 kts 225°
2026-04-24 11:54 22.05045 113.28057 5506 ft 232 kts 225°
2026-04-24 11:55 22.03923 113.26840 5405 ft 224 kts 225°
2026-04-24 11:55 22.02841 113.25668 5306 ft 216 kts 225°
2026-04-24 11:55 22.01786 113.24523 5091 ft 214 kts 225°
2026-04-24 11:55 22.00687 113.23451 4870 ft 213 kts 211°
2026-04-24 11:56 21.99306 113.22887 4670 ft 212 kts 197°
2026-04-24 11:56 21.97898 113.22501 4446 ft 210 kts 196°
2026-04-24 11:56 21.96484 113.22126 4234 ft 208 kts 196°
2026-04-24 11:56 21.95090 113.21751 4031 ft 206 kts 195°
2026-04-24 11:57 21.93707 113.21375 3823 ft 204 kts 196°
2026-04-24 11:57 21.92350 113.21003 3665 ft 198 kts 195°
2026-04-24 11:57 21.91045 113.20645 3476 ft 189 kts 195°
2026-04-24 11:57 21.89802 113.20303 3336 ft 177 kts 195°
2026-04-24 11:58 21.88674 113.19992 3307 ft 161 kts 195°
2026-04-24 11:58 21.87593 113.19732 3206 ft 156 kts 184°
2026-04-24 11:58 21.86623 113.20088 3081 ft 145 kts 143°
2026-04-24 11:58 21.86103 113.21002 2957 ft 148 kts 99°
2026-04-24 11:59 21.86478 113.22005 3004 ft 152 kts 53°
2026-04-24 11:59 21.87130 113.22895 2984 ft 150 kts 53°
2026-04-24 11:59 21.87777 113.23769 2968 ft 149 kts 53°
2026-04-24 11:59 21.88469 113.24624 2974 ft 152 kts 49°
2026-04-24 12:00 21.89206 113.25451 2844 ft 153 kts 47°
2026-04-24 12:00 21.89940 113.26246 2639 ft 149 kts 47°
2026-04-24 12:00 21.90660 113.27013 2446 ft 142 kts 47°
2026-04-24 12:00 21.91357 113.27757 2255 ft 139 kts 46°
2026-04-24 12:01 21.92039 113.28484 2074 ft 136 kts 45°
2026-04-24 12:01 21.92702 113.29189 1885 ft 132 kts 46°
2026-04-24 12:01 21.93339 113.29866 1730 ft 126 kts 45°
2026-04-24 12:01 21.93960 113.30527 1573 ft 125 kts 45°
2026-04-24 12:02 21.94586 113.31193 1416 ft 128 kts 44°
2026-04-24 12:02 21.95229 113.31878 1230 ft 131 kts 44°
2026-04-24 12:02 21.95872 113.32562 1063 ft 130 kts 44°
2026-04-24 12:02 21.96517 113.33249 882 ft 131 kts 42°
2026-04-24 12:03 21.97159 113.33932 713 ft 128 kts 41°
2026-04-24 12:03 21.97785 113.34596 556 ft 125 kts 43°
2026-04-24 12:03 21.98415 113.35267 379 ft 130 kts 40°
2026-04-24 12:03 21.99067 113.35963 180 ft 132 kts 41°
2026-04-24 12:04 21.99672 113.36609 37 ft 124 kts 41°
2026-04-24 12:04 22.00214 113.37169 28 ft 87 kts 45°
2026-04-24 12:04 22.00452 113.37425 29 ft 59 kts 44°
2026-04-24 12:04 22.00714 113.37668 30 ft 29 kts 25°
2026-04-24 12:05 22.00867 113.37722 29 ft 20 kts 16°
2026-04-24 12:05 22.00972 113.37740 29 ft 12 kts 345°
2026-04-24 12:05 22.01017 113.37717 29 ft 8 kts 310°
2026-04-24 12:05 22.01058 113.37648 29 ft 8 kts 308°
2026-04-24 12:06 22.01062 113.37611 29 ft 8 kts 251°
2026-04-24 12:06 22.01014 113.37550 29 ft 9 kts 223°
2026-04-24 12:06 22.00979 113.37513 29 ft 12 kts 224°
2026-04-24 12:06 22.00920 113.37449 29 ft 12 kts 233°
2026-04-24 12:07 22.00938 113.37386 29 ft 7 kts 314°
2026-04-24 12:07 22.00962 113.37360 29 ft 8 kts 315°
2026-04-24 12:07 22.01003 113.37323 29 ft 8 kts 338°
2026-04-24 12:07 22.01029 113.37327 29 ft 2 kts 42°
2026-04-24 12:08 22.01047 113.37345 38 ft 3 kts 43°
2026-04-24 12:08 22.01058 113.37357 38 ft 1 kts 44°
2026-04-24 12:08 22.01060 113.37359 38 ft 0 kts 45°